[[{"header":{"parameterUnit":"m.s-1","parameterCategory":1,"la1":30.2991,"la2":30.254,"lo1":-89.0895,"lo2":-89.0444,"dy":0.0017,"dx":0.0017,"nx":28,"ny":28,"refTime":"2025-11-17T09:00:00:Z","depth":0,"parameterNumber":2,"parameterNumberName":"U-component_of_WINDS"},"data":[0,0,0,0,0,0,0,0,0,0,0,0,0,0,0,0,0,0,0,0,0,0,0,0,0,0,0,0,0,0,0,0,0,0,0,0,0,0,0,0,0,0,0,0,0,0,0,0,0,0,0,0,0,0,0,0,0,0,-2.1636,-2.1636,0,-2.1668,-2.1668,-2.1669,-2.1638,-2.1637,-2.1636,-2.1635,-2.1669,-2.1671,-2.1673,0,0,0,0,0,0,0,0,0,0,0,0,0,-2.1554,-2.1556,-2.1636,-2.1636,-2.1637,-2.1668,-2.1668,-2.1669,-2.1638,-2.1637,-2.1635,-2.1634,-2.1668,-2.1671,-2.1673,0,0,0,0,0,0,0,0,0,0,0,0,0,-2.1588,-2.1557,-2.1636,-2.1625,-2.1625,-2.1668,-2.1668,-2.1669,-2.1639,-2.1637,-2.1635,-2.1633,-2.1667,-2.167,-2.1673,-2.1729,0,0,-2.1683,-2.1684,0,0,0,0,0,0,0,0,-2.1587,-2.1591,-2.1627,-2.1626,-2.1626,-2.1647,-2.1652,-2.1689,-2.1639,-2.1634,-2.1635,-2.1633,-2.1663,-2.1666,-2.1676,-2.173,-2.1732,-2.1683,-2.1685,-2.1686,-2.1687,0,0,0,0,0,0,0,-2.1584,-2.159,-2.1649,-2.1627,-2.1627,-2.1621,-2.1624,-2.1659,-2.1658,-2.1634,-2.1632,-2.1636,-2.1663,-2.1674,-2.1677,-2.1732,-2.1683,-2.1686,-2.1687,-2.1689,-2.1839,-2.1841,0,0,0,0,0,0,-2.1583,-2.1588,-2.1648,-2.165,-2.1601,-2.1624,-2.1627,-2.1642,-2.1658,-2.1658,-2.1637,-2.1634,-2.1669,-2.1674,-2.1678,-2.1747,-2.1686,-2.1689,-2.1691,-2.1837,-2.184,-2.1842,0,0,0,0,0,0,-2.1581,-2.1588,-2.1646,-2.1618,-2.1625,-2.1627,-2.1645,-2.1644,-2.1655,-2.166,-2.166,-2.1648,-2.1668,-2.1674,-2.1718,-2.1748,-2.169,-2.1693,-2.1834,-2.1838,-2.1841,-2.1883,0,0,0,0,0,0,-2.1579,-2.1588,-2.1607,-2.1619,-2.1627,-2.1683,-2.1646,-2.1646,-2.166,-2.1656,-2.1671,-2.1671,-2.1667,-2.1713,-2.1721,-2.1751,-2.1696,-2.1832,-2.1836,-2.184,-2.1879,-2.1888,-2.1895,0,0,0,0,0,-2.1576,-2.1617,-2.1608,-2.1615,-2.1651,-2.1685,-2.169,-2.1683,-2.1662,-2.1683,-2.1688,-2.1671,-2.1744,-2.1718,-2.1726,-2.1758,-2.183,-2.1835,-2.1839,-2.1876,-2.1886,-2.1895,0,0,0,0,0,0,-2.1607,-2.1618,-2.1608,-2.1654,-2.1669,-2.168,-2.1705,-2.1694,-2.1715,-2.1711,-2.1703,-2.1707,-2.1753,-2.176,-2.1731,-2.1815,-2.1784,-2.179,-2.1808,-2.1818,-2.1826,-2.1823,-2.1698,0,0,0,0,0,-2.162,-2.1645,-2.1654,-2.1694,-2.1702,-2.1703,-2.1717,-2.1712,-2.1727,-2.1733,-2.1741,-2.1757,-2.1784,-2.1802,-2.1826,-2.1881,-2.1886,-2.1907,-2.1915,-2.1922,-2.1927,-2.1961,-2.1972,-2.1858,-2.1858,-2.1858,0,0,-2.1645,-2.1655,-2.1671,-2.1701,-2.1711,-2.174,-2.1708,-2.1739,-2.1761,-2.1738,-2.178,-2.1787,-2.1805,-2.1856,-2.1878,-2.1863,-2.1961,-2.1928,-2.1933,-2.1935,-2.1967,-2.1978,-2.1988,-2.1861,-2.1861,-2.186,0,0,-2.1706,-2.1715,-2.1751,-2.1764,-2.1781,-2.1782,-2.1792,-2.1805,-2.1809,-2.1852,-2.1837,-2.1864,-2.1909,-2.1924,-2.1938,-2.2012,-2.1998,-2.2021,-2.2061,-2.2094,-2.2103,-2.2111,-2.2139,-2.215,-2.2026,-2.2026,-2.2027,0,-2.1736,-2.1777,-2.1771,-2.1804,-2.1819,-2.1802,-2.184,-2.1853,-2.1878,-2.189,-2.1872,-2.1932,-2.1943,-2.1999,-2.2018,-2.2028,-2.2041,-2.2018,-2.2102,-2.211,-2.2117,-2.2144,-2.2155,-2.2029,-2.2029,-2.2029,-2.2028,0,-2.1814,-2.1844,-2.1871,-2.1897,-2.1915,-2.1951,-2.1952,-2.1972,-2.1967,-2.1971,-2.2018,-2.2031,-2.206,-2.2073,-2.2067,-2.213,-2.212,-2.2103,-2.207,-2.2131,-2.2156,-2.2167,-2.2033,-2.2032,-2.2031,-2.203,0,0,-2.1891,-2.1917,-2.1928,-2.1941,-2.1962,-2.1986,-2.2023,-2.2052,-2.2071,-2.209,-2.2123,-2.2165,-2.215,-2.2166,-2.2163,-2.2192,-2.2253,-2.2171,-2.2171,-2.2187,-2.2327,-2.234,-2.2352,-2.2246,-2.2248,-2.2249,-2.2326,0,-2.1955,-2.2017,-2.2016,-2.2075,-2.2105,-2.2092,-2.2125,-2.2143,-2.2149,-2.2177,-2.2184,-2.2215,-2.2192,-2.2202,-2.2231,-2.224,-2.2281,-2.2234,-2.2278,-2.2279,-2.2273,-2.2365,-2.2378,-2.245,-2.2336,-2.2338,-2.2339,0,-2.2035,-2.2059,-2.2122,-2.2143,-2.2155,-2.2184,-2.2214,-2.224,-2.2262,-2.2265,-2.2286,-2.2279,-2.2321,-2.2289,-2.2347,-2.2315,-2.2334,-2.2342,-2.2345,-2.2348,-2.2312,-2.2372,-2.2472,-2.2483,-2.2354,-2.2353,-2.2352,0,-2.2088,-2.2136,-2.218,-2.2192,-2.2217,-2.2239,-2.2251,-2.2271,-2.2291,-2.2318,-2.2331,-2.2362,-2.2379,-2.2405,-2.2409,-2.2385,-2.2469,-2.2436,-2.2474,-2.2474,-2.2491,-2.2489,-2.2596,-2.2503,-2.2503,-2.2502,-2.2502,0,-2.2158,-2.2197,-2.2205,-2.2232,-2.2278,-2.2278,-2.2323,-2.2333,-2.2353,-2.2384,-2.2376,-2.2406,-2.2409,-2.2441,-2.2445,-2.2494,-2.2502,-2.2507,-2.2508,-2.2508,-2.2507,-2.2519,-2.2514,-2.2505,-2.2505,-2.2504,-2.2503,0,-2.2223,-2.2229,-2.2277,-2.2299,-2.2306,-2.2339,-2.2358,-2.2386,-2.2394,-2.2434,-2.2444,-2.2457,-2.2494,-2.2502,-2.2546,-2.2549,-2.2609,-2.2604,-2.2601,-2.26,-2.2638,-2.2635,-2.2756,-2.2773,-2.2668,-2.2669,-2.267,0,-2.2267,-2.2297,-2.2323,-2.2344,-2.2357,-2.239,-2.2411,-2.2414,-2.2436,-2.2467,-2.2493,-2.253,-2.2559,-2.2622,-2.2636,-2.2671,-2.2668,-2.2708,-2.2673,-2.2674,-2.267,-2.2669,-2.2673,-2.2714,-2.2715,-2.2716,-2.2717,0,-2.2345,-2.2348,-2.2377,-2.241,-2.2435,-2.2461,-2.2485,-2.2503,-2.2511,-2.2537,-2.2576,-2.26,-2.2647,-2.2685,-2.2722,-2.2737,-2.273,-2.2729,-2.274,-2.274,-2.2737,-2.2741,-2.262,-2.2725,-2.2724,-2.2724,-2.2723,-2.2723,-2.2401,-2.2429,-2.2453,-2.2488,-2.2508,-2.2532,-2.2561,-2.2574,-2.2606,-2.2645,-2.2646,-2.2689,-2.2717,-2.2765,-2.2783,-2.2819,-2.2806,-2.2822,-2.2826,-2.2829,-2.2834,-2.2733,-2.2826,-2.2826,-2.2825,-2.2825,-2.2825,0,-2.248,-2.2496,-2.2529,-2.2564,-2.2593,-2.2585,-2.2613,-2.2638,-2.2676,-2.2702,-2.2733,-2.2781,-2.282,-2.2839,-2.2878,-2.2904,-2.2902,-2.2914,-2.2912,-2.2917,-2.2842,-2.2829,-2.2916,-2.2916,-2.2916,-2.2916,-2.2916,-2.2916,-2.2524,-2.2572,-2.258,-2.2639,-2.2655,-2.2698,-2.2715,-2.274,-2.276,-2.2814,-2.2846,-2.2859,-2.2884,-2.2926,-2.2963,-2.2968,-2.2984,-2.2998,-2.3001,-2.2931,-2.2921,-2.2913,-2.2901,-2.3001,-2.3001,-2.3073,-2.3074,-2.3075]},{"header":{"parameterUnit":"m.s-1","parameterCategory":1,"la1":30.2991,"la2":30.254,"lo1":-89.0895,"lo2":-89.0444,"dy":0.0017,"dx":0.0017,"nx":28,"ny":28,"refTime":"2025-11-17T09:00:00:Z","depth":0,"parameterNumber":3,"parameterNumberName":"V-component_of_WINDS"},"data":[0,0,0,0,0,0,0,0,0,0,0,0,0,0,0,0,0,0,0,0,0,0,0,0,0,0,0,0,0,0,0,0,0,0,0,0,0,0,0,0,0,0,0,0,0,0,0,0,0,0,0,0,0,0,0,0,0,0,2.0336,2.0336,0,2.0317,2.0317,2.0317,2.036,2.0361,2.0363,2.0364,2.0338,2.0336,2.0334,0,0,0,0,0,0,0,0,0,0,0,0,0,2.0404,2.0403,2.0336,2.0336,2.0336,2.0317,2.0317,2.0317,2.036,2.0361,2.0363,2.0365,2.0338,2.0336,2.0334,0,0,0,0,0,0,0,0,0,0,0,0,0,2.0379,2.0402,2.0336,2.0355,2.0357,2.0317,2.0317,2.0317,2.0359,2.0362,2.0364,2.0366,2.0339,2.0336,2.0333,2.0273,0,0,2.0324,2.0323,0,0,0,0,0,0,0,0,2.038,2.0376,2.0353,2.0354,2.0355,2.0343,2.0331,2.0302,2.0359,2.0358,2.0364,2.0367,2.0337,2.0335,2.0326,2.0271,2.027,2.0324,2.0322,2.0321,2.032,0,0,0,0,0,0,0,2.0382,2.0377,2.0328,2.0352,2.0354,2.0363,2.0362,2.0326,2.0336,2.0358,2.0362,2.0359,2.0339,2.0329,2.0326,2.027,2.0324,2.0321,2.0319,2.0318,2.0164,2.0162,0,0,0,0,0,0,2.0382,2.0378,2.0329,2.0328,2.0374,2.036,2.0358,2.0345,2.0337,2.0337,2.0357,2.0361,2.0333,2.0329,2.0325,2.0253,2.0321,2.0318,2.0316,2.0166,2.0163,2.0161,0,0,0,0,0,0,2.0383,2.0377,2.033,2.0354,2.0349,2.0357,2.0341,2.0343,2.0334,2.0336,2.0337,2.0346,2.0335,2.0329,2.0286,2.0253,2.0317,2.0314,2.0169,2.0165,2.0162,2.0108,0,0,0,0,0,0,2.0385,2.0378,2.0356,2.0353,2.0347,2.0292,2.0339,2.0342,2.033,2.0334,2.0326,2.0326,2.0336,2.029,2.0283,2.025,2.0311,2.0172,2.0167,2.0163,2.0113,2.0104,2.0095,0,0,0,0,0,2.0388,2.034,2.0354,2.0348,2.032,2.029,2.0287,2.0301,2.0327,2.0304,2.0305,2.0326,2.0258,2.0285,2.0277,2.0243,2.0174,2.0169,2.0164,2.0117,2.0105,2.0096,0,0,0,0,0,0,2.0335,2.034,2.0356,2.0306,2.0298,2.0298,2.0269,2.0288,2.027,2.0275,2.0292,2.0289,2.0242,2.0238,2.0268,2.0184,2.022,2.0213,2.0187,2.0176,2.0168,2.0168,2.0309,0,0,0,0,0,2.0318,2.0295,2.03,2.0256,2.0251,2.0261,2.0248,2.026,2.0251,2.0247,2.0245,2.0233,2.021,2.0193,2.0171,2.0114,2.0112,2.0086,2.0077,2.007,2.0063,2.0032,2.002,2.0144,2.0144,2.0144,0,0,2.0282,2.0282,2.0266,2.0245,2.024,2.0214,2.0257,2.0228,2.0208,2.0242,2.0201,2.0199,2.0187,2.0137,2.0114,2.0132,2.0029,2.0064,2.0058,2.0054,2.0025,2.0013,2.0003,2.014,2.0141,2.0142,0,0,2.0203,2.0201,2.0164,2.0159,2.0152,2.0159,2.015,2.0148,2.0148,2.0108,2.0133,2.0109,2.0068,2.0058,2.0048,1.9968,1.9986,1.996,1.9912,1.9882,1.9872,1.9863,1.9833,1.9822,1.9953,1.9953,1.9953,0,2.0158,2.0122,2.0142,2.0112,2.0101,2.0134,2.0095,2.0089,2.0073,2.0064,2.0086,2.0035,2.003,1.9977,1.9958,1.9949,1.9938,1.996,1.9872,1.9864,1.9856,1.9827,1.9816,1.995,1.995,1.9951,1.9951,0,2.0067,2.0042,2.0012,2.0,1.9986,1.9952,1.9965,1.9949,1.9963,1.9967,1.9925,1.992,1.9898,1.9887,1.9899,1.9835,1.9847,1.987,1.9906,1.9841,1.9814,1.9803,1.9945,1.9947,1.9948,1.9948,0,0,1.9952,1.9953,1.9941,1.9936,1.9931,1.9911,1.9878,1.9859,1.9843,1.9832,1.9804,1.9769,1.9791,1.9779,1.9791,1.9764,1.97,1.9791,1.9791,1.9773,1.9628,1.9609,1.9596,1.9713,1.9711,1.9709,1.9629,0,1.9873,1.9818,1.9836,1.9779,1.9755,1.9787,1.9758,1.9751,1.9754,1.9733,1.9737,1.9711,1.9743,1.9736,1.9712,1.9713,1.967,1.9719,1.9684,1.9682,1.9684,1.9583,1.9563,1.9486,1.9618,1.9617,1.9615,0,1.9772,1.976,1.9702,1.9702,1.9692,1.9666,1.965,1.963,1.9623,1.9627,1.9616,1.9633,1.9599,1.9638,1.959,1.9622,1.9609,1.9608,1.9605,1.9601,1.9643,1.9573,1.9463,1.945,1.9599,1.9601,1.9602,0,1.9692,1.9661,1.9622,1.9617,1.9616,1.9597,1.9595,1.9591,1.9578,1.9563,1.9555,1.9536,1.9525,1.9509,1.952,1.9548,1.947,1.951,1.9471,1.947,1.9451,1.9451,1.9334,1.9446,1.9446,1.9446,1.9446,0,1.9601,1.9564,1.9587,1.9562,1.9521,1.9542,1.95,1.9502,1.9497,1.9473,1.9499,1.9475,1.9492,1.9469,1.9478,1.9436,1.9431,1.9432,1.9435,1.9429,1.9429,1.9419,1.9424,1.9443,1.9444,1.9444,1.9445,0,1.9504,1.9518,1.9477,1.9481,1.9481,1.9451,1.9453,1.943,1.9437,1.9405,1.9399,1.9409,1.9383,1.9394,1.9366,1.9372,1.9318,1.9328,1.9321,1.9323,1.9283,1.9286,1.9153,1.9137,1.926,1.9259,1.9258,0,1.9443,1.9416,1.9418,1.9404,1.9402,1.9379,1.9368,1.9387,1.9373,1.9363,1.9341,1.9319,1.9301,1.9259,1.9262,1.924,1.9249,1.9204,1.9246,1.9241,1.9246,1.9247,1.9244,1.9195,1.9194,1.9193,1.9192,0,1.9334,1.9343,1.9326,1.9312,1.9298,1.9286,1.9277,1.9264,1.9284,1.9266,1.9242,1.9229,1.9202,1.9178,1.916,1.9157,1.9176,1.9179,1.9169,1.9161,1.9158,1.9158,1.9296,1.9181,1.9182,1.9183,1.9184,1.9184,1.9253,1.923,1.9228,1.9208,1.9204,1.9195,1.9174,1.9179,1.916,1.9141,1.9154,1.9124,1.9118,1.9096,1.9089,1.9066,1.9083,1.9068,1.9064,1.9059,1.9054,1.9164,1.9063,1.9063,1.9063,1.9063,1.9064,0,1.9144,1.9145,1.9127,1.9115,1.9099,1.9123,1.9114,1.9098,1.9073,1.9066,1.905,1.9021,1.8999,1.9002,1.8981,1.8961,1.897,1.8955,1.8955,1.8954,1.904,1.9051,1.8949,1.8949,1.8949,1.8949,1.8949,1.8949,1.9085,1.9048,1.9057,1.9017,1.9018,1.8991,1.8984,1.8976,1.8971,1.8939,1.8921,1.8924,1.892,1.89,1.888,1.8881,1.8872,1.8853,1.8857,1.8937,1.8948,1.8959,1.8969,1.8851,1.8851,1.8773,1.8772,1.8772]}]]